Regional Weather Roundup
Issued by NWS

Home | Current Version | Previous Version | Graphics & Text | Print | Product List | Glossary Off
Versions: 1 2 3 4 5 6 7 8 9 10 11 12 13 14 15 16 17 18 19 20 21 22 23 24 25 26 27 28 29 30 31 32 33 34 35 36 37 38 39 40 41 42 43 44 45 46 47 48 49 50

000
ASUS43 KMPX 160901
RWRMN
WEATHER ROUNDUP FOR MINNESOTA
NATIONAL WEATHER SERVICE TWIN CITIES/CHANHASSEN MN
400 AM CDT WED APR 16 2014


NOTE: "FAIR" INDICATES FEW OR NO CLOUDS BELOW 12,000 FEET WITH NO
SIGNIFICANT WEATHER AND/OR OBSTRUCTIONS TO VISIBILITY. N/A MEANS
CURRENT SKY AND/OR WEATHER CONDITIONS ARE NOT AVAILABLE.

MNZ060>063-068>070-161000-
   Twin Cities Metro

CITY           SKY/WX    TMP DP  RH WIND       PRES   REMARKS
TWIN CITIES    CLOUDY    33  17  51 E18       30.01F WCI  22
ST PAUL        CLOUDY    34  16  47 E14G22    30.04F WCI  25
CRYSTAL        CLOUDY    33  20  58 E12       30.00F WCI  24
BLAINE         FLURRIES  32  28  86 E13       30.02F WCI  22
EDEN PRAIRIE   CLOUDY    35  15  44 E17G23    29.97F WCI  25
LAKEVILLE      MOCLDY    30  19  64 E15       30.00F WCI  19
SOUTH ST PAUL  MOCLDY    37  17  45 E8        30.03S
LAKE ELMO      CLOUDY    32  23  69 E14       30.05F WCI  22
$$
MNZ001>005-007-008-013>017-022>024-027-028-161000-
   Northwest Minnesota

CITY           SKY/WX    TMP DP  RH WIND       PRES   REMARKS
BEMIDJI        CLOUDY    26   5  41 E7        30.02S WCI  18
HALLOCK        CLOUDY    27  10  50 E12       30.08R WCI  16
ROSEAU         PTCLDY    23  12  63 E9        30.11R WCI  13
WARROAD        PTCLDY    16   9  73 NE7       30.12R WCI   6
THIEF RVR FALL CLOUDY    25   7  46 E14       30.04R WCI  13
CROOKSTON      CLOUDY    28  12  50 E9        30.03S WCI  20
FOSSTON        CLOUDY    27   7  43 E8        30.01S WCI  18
DETROIT LAKES  LGT SNOW  28  23  80 E8        29.96S WCI  20
MOORHEAD       CLOUDY    28  27  93 E13G22    29.96S WCI  18
PARK RAPIDS    CLOUDY    28   4  35 E9        29.98F WCI  19
$$
MNZ006-009>011-018-025>026-161000-
   North Central Minnesota

CITY           SKY/WX    TMP DP  RH WIND       PRES   REMARKS
BAUDETTE       MOCLDY    17   6  62 E6        30.11R WCI   9
FLAG ISLAND    PTCLDY    18   3  53 NE6       30.12R WCI   9
INTL FALLS     PTCLDY    18   4  54 E6        30.11S WCI  10
WASKISH        CLOUDY    21   7  53 E8        30.07S WCI  12
BIG FORK       MOCLDY    21   5  49 E6        30.07F WCI  14
LONGVILLE      CLOUDY    27   5  39 CALM      30.04S
GRAND RAPIDS   CLOUDY    25   3  39 SE5       30.05S WCI  19
CRANE LAKE     PTCLDY     5   1  85 CALM      30.15S
ORR            MOCLDY    18   1  49 CALM      30.08R
COOK           MOCLDY    16   5  62 NE3       30.10S
$$
MNZ012-019>021-037-161000-
   Northeast Minnesota

CITY           SKY/WX    TMP DP  RH WIND       PRES   REMARKS
DULUTH         CLOUDY    24  10  55 E8        30.08S WCI  15
ELY            MOCLDY     7   5  92 CALM      30.11S
HIBBING        CLOUDY    22   7  52 E5        30.07F WCI  16
EVELETH        CLOUDY    21   7  53 NE5       30.10S WCI  15
DULUTH HARBOR  CLOUDY    27  19  74 CALM      30.14R
TWO HARBORS    CLOUDY    21   5  49 NE5       30.10S WCI  15
SILVER BAY     CLOUDY    18   7  62 CALM      30.11S
GRAND MARAIS     N/A     23   2  40 NE6       30.18R WCI  16
G MARAIS ARPRT PTCLDY     7  -4  61 N5        30.10R WCI  -2
$$
MNZ029>031-032-039>041-046>048-054>057-064-161000-
   West Central Minnesota

CITY           SKY/WX    TMP DP  RH WIND       PRES   REMARKS
FERGUS FALLS   MIX PCPN  27  21  80 E13G26    29.89F WCI  16
WHEATON        CLOUDY    32  25  74 E21G26    29.89S WCI  20
MORRIS         MOCLDY    30  21  69 E30       29.86S WCI  15
ALEXANDRIA     CLOUDY    27  23  85 E21G26    29.92S WCI  13
ELBOW LAKE     CLOUDY    28  24  86 E21G30    29.89S WCI  14
WADENA         LGT SNOW  25  21  86 E12       29.97S VSB 1   WCI  14
GLENWOOD       CLOUDY    27  23  86 E25       29.91S WCI  11
APPLETON       MOCLDY    34  19  55 E20G26    29.84F WCI  22
BENSON         CLOUDY    30  21  69 SE16G23   29.87S WCI  19
ORTONVILLE     MOCLDY    32  16  51 E16       29.83F WCI  21
MADISON        MOCLDY    36  21  55 E21       29.82S
WILLMAR        FAIR      32  19  59 E20G30    29.88S WCI  20
$$
MNZ033>034-036-042>043-049>051-058-059-161000-
   Central Minnesota

CITY           SKY/WX    TMP DP  RH WIND       PRES   REMARKS
ST CLOUD       LGT SNOW  29  25  85 E10       30.00S FOG     WCI  20
SAUK CENTRE    CLOUDY    27  24  89 E17       29.94S WCI  14
PAYNESVILLE    CLOUDY    29  24  81 E16G30    29.93F WCI  17
AITKIN         CLOUDY    30   1  29 E3        30.02F
PINE RIVER     CLOUDY    28  10  47 E9        30.04F WCI  20
BRAINERD       CLOUDY    33   7  33 E8        30.01F WCI  26
STAPLES        LGT SNOW  25  21  86 E5        29.99S WCI  19
LONG PRAIRIE   CLOUDY    25  23  93 NE13      29.95F WCI  13
LITTLE FALLS   LGT SNOW  27  23  86 E8        30.00F VSB 1   WCI  18
LITCHFIELD     CLOUDY    32  21  64 E18       29.93F WCI  20
BUFFALO        CLOUDY    30  25  81 NE15      29.99F WCI  19
MAPLE LAKE     CLOUDY    30  27  89 E16       29.99F WCI  19
$$
MNZ037-044-045-052-053-161000-
   East Central Minnesota

CITY           SKY/WX    TMP DP  RH WIND       PRES   REMARKS
PRINCETON      LGT SNOW  28  27  93 E12       30.03F WCI  18
MORA           CLOUDY    30  14  51 SE9       30.07R WCI  22
CAMBRIDGE      LGT SNOW  30  23  74 E8        30.03F VSB 3/4 WCI  23
RUSH CITY      LGT SNOW  28  23  81 SE6       30.07S WCI  22
MOOSE LAKE     CLOUDY    28   9  43 E5        30.06S WCI  23
HINCKLEY       CLOUDY    30  10  43 E7        30.07S WCI  23
CLOQUET        CLOUDY    25   5  42 E5        30.08R WCI  19
MCGREGOR       CLOUDY    28   9  43 E10       30.06S WCI  19
$$
MNZ071>073-080-081-089-090-097-098-161000-
   Southwest Minnesota

CITY           SKY/WX    TMP DP  RH WIND       PRES   REMARKS
MONTEVIDEO     MOCLDY    32  19  59 SE21G32   29.85R WCI  20
GRANITE FALLS  CLOUDY    33  19  57 E18G29    29.84F WCI  22
CANBY          CLOUDY    33  23  66 E18G30    29.80S WCI  22
MARSHALL       CLOUDY    34  19  55 SE21      29.78F WCI  22
REDWOOD FALLS  CLOUDY    34  20  56 E17G24    29.85F WCI  23
OLIVIA         CLOUDY    34  21  60 E20G26    29.86F WCI  22
PIPESTONE      CLOUDY    36  27  69 SE16G23   29.68F
WINDOM         CLOUDY    34  23  64 E22G29    29.78F WCI  22
WORTHINGTON    CLOUDY    36  21  55 SE17G25   29.75F
JACKSON        CLOUDY    34  25  69 SE21      29.79F WCI  22
TRACY          CLOUDY    34  22  62 E18       29.79S WCI  23
SLAYTON        CLOUDY    32  24  72 E13       29.75S WCI  23
$$
MNZ065>067-074>077-082>085-091>093-161000-
   South Central Minnesota

CITY           SKY/WX    TMP DP  RH WIND       PRES   REMARKS
MANKATO        CLOUDY    34  19  55 SE23G32   29.90F WCI  22
NEW ULM        CLOUDY    34  19  55 E16G24    29.87S WCI  23
ST JAMES       CLOUDY    36  21  55 E22       29.85F
FAIRMONT       CLOUDY    34  21  60 SE22G29   29.85F WCI  22
GLENCOE        CLOUDY    34  17  50 E18G28    29.92F WCI  23
FARIBAULT      CLOUDY    36  14  41 E15G24    29.96F
OWATONNA       MOCLDY    34  19  55 E22G31    29.94F WCI  22
WASECA         CLOUDY    34  23  64 E24G33    29.92F WCI  21
ALBERT LEA     CLOUDY    34  19  55 SE20G29   29.93F WCI  22
$$
MNZ078>079-086>088-094>096-161000-
   Southeast Minnesota

CITY           SKY/WX    TMP DP  RH WIND       PRES   REMARKS
ROCHESTER      CLOUDY    32  18  56 SE20      30.00F WCI  20
RED WING       MOCLDY    36  18  48 SE10      30.05S
STANTON        CLOUDY    33  19  54 E14G22    29.98F WCI  24
DODGE CENTER   CLOUDY    34  19  55 SE16G22   29.99R WCI  23
WINONA         MOCLDY    34  21  60 SE10      30.09F WCI  26
AUSTIN         MOCLDY    32  21  64 SE21      29.97F WCI  20
PRESTON        CLOUDY    32  19  58 SE14      30.04S WCI  22
$$
ABBREVIATIONS USED IN REMARKS
   TC - TEMPERATURES IN CELSIUS
  WCI - WIND CHILL INDEX
   HX - HEAT INDEX
  VSB - VISIBILITY
$$


USA.gov is the U.S. government's official web portal to all federal, state and local government web resources and services.